• In Portugal
  • List of Countries
  • For 7 days
  • Water Temperature
  • Satellite Maps
  • Weather Map
  • Weather Widgets
  • user-avatar
    Login

    Hourly Weather Sherpur

    Today, 23 January, Tuesday

    Time Temperature Precipitation Wind Pressure Humidity
    00:00 +1°C° 0 mm 2 mps 604 mmHg 14%
    01:00 +1°C° 0 mm 2 mps 604 mmHg 15%
    02:00 -1°C° 0 mm 2 mps 604 mmHg 16%
    03:00 -1°C° 0 mm 2 mps 604 mmHg 18%
    04:00 -1°C° 0 mm 2 mps 604 mmHg 20%
    05:00 -1°C° 0 mm 2 mps 603 mmHg 28%
    06:00 -1°C° 0 mm 2 mps 604 mmHg 28%
    07:00 -1°C° 0 mm 2 mps 604 mmHg 29%
    08:00 -1°C° 0 mm 2 mps 604 mmHg 30%
    09:00 +2°C° 0 mm 2 mps 605 mmHg 27%
    10:00 +5°C° 0 mm 1 mps 605 mmHg 25%
    11:00 +7°C° 0 mm 1 mps 605 mmHg 22%
    12:00 +7°C° 0 mm 1 mps 605 mmHg 21%
    13:00 +8°C° 0 mm 1 mps 605 mmHg 20%
    14:00 +9°C° 0 mm 1 mps 605 mmHg 19%
    15:00 +8°C° 0 mm 1 mps 604 mmHg 20%
    16:00 +8°C° 0 mm 1 mps 604 mmHg 21%
    17:00 +8°C° 0 mm 1 mps 604 mmHg 22%
    18:00 +6°C° 0 mm 2 mps 604 mmHg 23%
    19:00 +5°C° 0 mm 2 mps 604 mmHg 24%
    20:00 +3°C° 0 mm 2 mps 604 mmHg 24%
    21:00 +3°C° 0 mm 2 mps 604 mmHg 24%
    22:00 +3°C° 0 mm 2 mps 604 mmHg 23%
    23:00 +2°C° 0 mm 2 mps 604 mmHg 23%

    Tomorrow, 24 January, Wednesday

    Time Temperature Precipitation Wind Pressure Humidity
    00:00 +2°C° 0 mm 2 mps 604 mmHg 22%
    01:00 +2°C° 0 mm 2 mps 604 mmHg 21%
    02:00 +2°C° 0 mm 2 mps 603 mmHg 21%
    03:00 +1°C° 0 mm 2 mps 603 mmHg 21%
    04:00 +1°C° 0 mm 2 mps 603 mmHg 20%
    05:00 +1°C° 0 mm 2 mps 603 mmHg 20%
    06:00 +1°C° 0 mm 2 mps 603 mmHg 20%
    07:00 +1°C° 0 mm 2 mps 603 mmHg 20%
    08:00 +1°C° 0 mm 2 mps 603 mmHg 20%
    09:00 +4°C° 0 mm 1 mps 604 mmHg 18%
    10:00 +6°C° 0 mm 1 mps 605 mmHg 16%
    11:00 +8°C° 0 mm 1 mps 606 mmHg 14%
    12:00 +9°C° 0 mm 1 mps 605 mmHg 14%
    13:00 +9°C° 0 mm 1 mps 605 mmHg 14%
    14:00 +10°C° 0 mm 1 mps 605 mmHg 14%
    15:00 +9°C° 0 mm 1 mps 605 mmHg 15%
    16:00 +9°C° 0 mm 1 mps 605 mmHg 17%
    17:00 +8°C° 0 mm 1 mps 605 mmHg 19%
    18:00 +7°C° 0 mm 1 mps 605 mmHg 21%
    19:00 +6°C° 0 mm 1 mps 605 mmHg 22%
    20:00 +4°C° 0 mm 1 mps 605 mmHg 24%
    21:00 +4°C° 0 mm 1 mps 605 mmHg 25%
    22:00 +3°C° 0 mm 1 mps 605 mmHg 26%
    23:00 +3°C° 0 mm 1 mps 605 mmHg 27%

    Day after tomorrow, 25 January, Thursday

    Time Temperature Precipitation Wind Pressure Humidity
    00:00 +2°C° 0 mm 1 mps 605 mmHg 27%
    01:00 +2°C° 0 mm 1 mps 605 mmHg 27%
    02:00 +2°C° 0 mm 1 mps 604 mmHg 28%
    03:00 +1°C° 0 mm 1 mps 604 mmHg 28%
    04:00 -1°C° 0 mm 2 mps 604 mmHg 29%
    05:00 -1°C° 0 mm 2 mps 604 mmHg 30%
    06:00 -1°C° 0 mm 2 mps 605 mmHg 30%
    07:00 +1°C° 0 mm 2 mps 605 mmHg 30%
    08:00 +1°C° 0 mm 2 mps 606 mmHg 30%
    09:00 +3°C° 0 mm 2 mps 606 mmHg 27%
    10:00 +4°C° 0 mm 2 mps 607 mmHg 24%
    11:00 +6°C° 0 mm 2 mps 607 mmHg 22%
    12:00 +7°C° 0 mm 2 mps 607 mmHg 21%
    13:00 +8°C° 0 mm 3 mps 607 mmHg 20%
    14:00 +8°C° 0 mm 3 mps 607 mmHg 19%
    15:00 +8°C° 0 mm 3 mps 606 mmHg 21%
    16:00 +7°C° 0 mm 3 mps 606 mmHg 22%
    17:00 +7°C° 0 mm 3 mps 606 mmHg 23%
    18:00 +5°C° 0 mm 3 mps 607 mmHg 25%
    19:00 +3°C° 0 mm 3 mps 607 mmHg 28%
    20:00 +2°C° 0 mm 3 mps 607 mmHg 30%
    21:00 +2°C° 0 mm 3 mps 607 mmHg 30%
    22:00 +1°C° 0 mm 3 mps 607 mmHg 31%
    23:00 +1°C° 0 mm 3 mps 607 mmHg 31%

    26 January, Friday

    Time Temperature Precipitation Wind Pressure Humidity
    00:00 0°C° 0 mm 3 mps 607 mmHg 31%
    01:00 0°C° 0 mm 3 mps 607 mmHg 31%
    02:00 0°C° 0 mm 3 mps 607 mmHg 31%
    03:00 0°C° 0 mm 3 mps 606 mmHg 31%
    04:00 -1°C° 0 mm 3 mps 606 mmHg 31%
    05:00 -1°C° 0 mm 3 mps 606 mmHg 32%
    06:00 -1°C° 0 mm 3 mps 607 mmHg 31%
    07:00 -1°C° 0 mm 3 mps 607 mmHg 31%
    08:00 -1°C° 0 mm 3 mps 607 mmHg 31%
    09:00 +1°C° 0 mm 3 mps 608 mmHg 28%
    10:00 +4°C° 0 mm 2 mps 608 mmHg 24%
    11:00 +6°C° 0 mm 2 mps 608 mmHg 21%
    12:00 +6°C° 0 mm 2 mps 608 mmHg 20%
    13:00 +7°C° 0 mm 2 mps 607 mmHg 20%
    14:00 +8°C° 0 mm 2 mps 607 mmHg 19%
    15:00 +8°C° 0 mm 2 mps 607 mmHg 20%
    16:00 +7°C° 0 mm 2 mps 607 mmHg 21%
    17:00 +7°C° 0 mm 2 mps 607 mmHg 22%
    18:00 +5°C° 0 mm 3 mps 607 mmHg 24%
    19:00 +3°C° 0 mm 3 mps 607 mmHg 26%
    20:00 +2°C° 0 mm 3 mps 607 mmHg 28%
    21:00 +2°C° 0 mm 3 mps 607 mmHg 29%
    22:00 +1°C° 0 mm 3 mps 607 mmHg 29%
    23:00 +1°C° 0 mm 3 mps 607 mmHg 30%

    27 January, Saturday

    Time Temperature Precipitation Wind Pressure Humidity
    00:00 +1°C° 0 mm 3 mps 606 mmHg 30%
    01:00 0°C° 0 mm 3 mps 606 mmHg 31%
    02:00 0°C° 0 mm 3 mps 606 mmHg 31%
    03:00 0°C° 0 mm 3 mps 606 mmHg 31%
    04:00 0°C° 0 mm 3 mps 605 mmHg 31%
    05:00 -1°C° 0 mm 3 mps 605 mmHg 32%
    06:00 -1°C° 0 mm 3 mps 605 mmHg 31%
    07:00 -1°C° 0 mm 3 mps 606 mmHg 30%
    08:00 -1°C° 0 mm 3 mps 606 mmHg 30%
    09:00 +2°C° 0 mm 2 mps 606 mmHg 26%
    10:00 +4°C° 0 mm 2 mps 606 mmHg 23%
    11:00 +6°C° 0 mm 2 mps 607 mmHg 20%
    12:00 +7°C° 0 mm 2 mps 606 mmHg 19%
    13:00 +7°C° 0 mm 2 mps 606 mmHg 18%
    14:00 +8°C° 0 mm 2 mps 605 mmHg 17%
    15:00 +8°C° 0 mm 2 mps 605 mmHg 18%
    16:00 +8°C° 0 mm 2 mps 605 mmHg 19%
    17:00 +8°C° 0 mm 1 mps 605 mmHg 20%
    18:00 +6°C° 0 mm 2 mps 605 mmHg 22%
    19:00 +5°C° 0 mm 2 mps 605 mmHg 25%
    20:00 +4°C° 0 mm 2 mps 605 mmHg 27%
    21:00 +3°C° 0 mm 2 mps 605 mmHg 28%
    22:00 +4°C° 0 mm 1 mps 605 mmHg 30%
    23:00 +3°C° 0 mm 1 mps 605 mmHg 31%

    28 January, Sunday

    Time Temperature Precipitation Wind Pressure Humidity
    00:00 +3°C° 0 mm 1 mps 605 mmHg 32%
    01:00 +2°C° 0 mm 1 mps 604 mmHg 33%
    02:00 +2°C° 0 mm 1 mps 604 mmHg 35%
    03:00 +2°C° 0 mm 1 mps 604 mmHg 35%
    04:00 +1°C° 0 mm 1 mps 603 mmHg 36%
    05:00 +1°C° 0 mm 1 mps 603 mmHg 37%
    06:00 +1°C° 0 mm 1 mps 603 mmHg 37%
    07:00 +1°C° 0 mm 1 mps 604 mmHg 38%
    08:00 +1°C° 0 mm 1 mps 604 mmHg 38%
    09:00 +3°C° 0 mm 1 mps 604 mmHg 34%
    10:00 +5°C° 0 mm 1 mps 605 mmHg 31%
    11:00 +6°C° 0 mm 1 mps 605 mmHg 27%
    12:00 +7°C° 0 mm 1 mps 605 mmHg 27%
    13:00 +6°C° 0 mm 2 mps 604 mmHg 27%
    14:00 +7°C° 0 mm 2 mps 604 mmHg 26%
    15:00 +7°C° 0 mm 2 mps 604 mmHg 27%
    16:00 +6°C° 0 mm 2 mps 604 mmHg 28%
    17:00 +6°C° 0 mm 2 mps 604 mmHg 29%
    18:00 +5°C° 0 mm 2 mps 604 mmHg 31%
    19:00 +4°C° 0 mm 2 mps 604 mmHg 34%
    20:00 +3°C° 0 mm 2 mps 604 mmHg 36%
    21:00 +3°C° 0.1 mm 2 mps 604 mmHg 39%
    22:00 +2°C° 0.1 mm 2 mps 604 mmHg 42%
    23:00 +2°C° 0.1 mm 2 mps 604 mmHg 45%
    Show more